FW8660 Weather Reports


time (UTC)temp
F
wind
direction
speed
knots
gust
knots
rain 1hr
in
rain 24hr
in
rain mn
in
humidity
%
barometer
mb
20260507224529 55 0 0.0 2.6 0.00 0.05 0.00 85 1014.4
20260507223028 56 0 0.0 2.6 0.00 0.05 0.00 84 1014.4
20260507221528 56 0 0.0 2.6 0.00 0.05 0.00 84 1014.4
20260507220030 57 0 0.0 0.9 0.00 0.05 0.00 84 1014.2
20260507214530 57 0 0.0 0.0 0.00 0.05 0.05 83 1014.0
20260507213031 57 95 0.0 3.5 0.00 0.05 0.05 83 1014.0
20260507211530 58 82 1.7 4.3 0.00 0.05 0.05 83 1013.8
20260507210029 58 101 2.6 6.1 0.00 0.05 0.05 82 1013.6
20260507204530 58 71 3.5 7.8 0.00 0.05 0.05 81 1013.8
20260507203032 58 87 7.0 10.4 0.00 0.05 0.05 81 1013.7
20260507201537 58 70 3.5 10.4 0.00 0.05 0.05 82 1013.6
20260507200027 58 85 4.3 7.0 0.00 0.05 0.05 82 1013.4
20260507194528 58 88 5.2 10.4 0.00 0.05 0.05 82 1013.1
20260507193032 59 117 6.1 10.4 0.00 0.05 0.05 83 1012.8
20260507191534 59 98 6.1 9.6 0.00 0.05 0.05 82 1012.5
20260507190031 59 76 6.1 10.4 0.00 0.05 0.05 82 1012.2
20260507184528 59 97 4.3 10.4 0.00 0.05 0.05 82 1012.1
20260507183038 60 94 6.1 10.4 0.00 0.05 0.05 82 1011.8
20260507181530 60 107 6.1 9.6 0.00 0.05 0.05 81 1011.8
20260507180032 61 73 3.5 7.8 0.00 0.05 0.05 80 1011.7
20260507174535 61 94 7.0 10.4 0.00 0.05 0.05 79 1012.0
20260507173034 61 188 1.7 4.3 0.00 0.05 0.05 78 1012.0
20260507171531 62 107 4.3 12.2 0.00 0.05 0.05 77 1011.6
20260507170030 63 146 1.7 6.1 0.00 0.05 0.05 76 1011.5
20260507164531 64 248 1.7 3.5 0.00 0.05 0.05 76 1011.5
20260507163031 64 310 3.5 8.7 0.00 0.05 0.05 78 1011.3
20260507161529 63 263 3.5 7.8 0.00 0.05 0.05 80 1011.2
20260507160035 63 321 4.3 8.7 0.00 0.05 0.05 81 1011.0
20260507154528 63 266 5.2 7.8 0.00 0.05 0.05 83 1011.2
20260507153031 62 298 4.3 7.8 0.00 0.05 0.05 84 1011.3
20260507151531 62 294 3.5 6.1 0.00 0.05 0.05 84 1011.4
20260507150030 63 268 0.0 0.9 0.00 0.05 0.05 84 1011.3
20260507144528 62 0 0.0 2.6 0.02 0.05 0.05 83 1011.2
20260507143050 62 0 0.9 2.6 0.03 0.05 0.05 84 1011.0
20260507141547 61 0 0.0 3.5 0.04 0.05 0.05 83 1010.7
20260507140032 60 180 3.5 8.7 0.03 0.03 0.03 84 1011.0
20260507134528 61 140 7.0 12.2 0.03 0.03 0.03 84 1011.1
20260507133028 62 150 4.3 8.7 0.01 0.01 0.01 83 1011.4
20260507131527 62 150 3.5 7.8 0.00 0.00 0.00 80 1011.4
20260507130040 66 150 4.3 9.6 0.00 0.00 0.00 73 1011.5
20260507124530 67 126 6.1 10.4 0.00 0.00 0.00 70 1011.4
20260507123030 67 94 6.1 13.0 0.00 0.00 0.00 69 1011.5
20260507121530 67 145 5.2 11.3 0.00 0.00 0.00 69 1011.6
20260507120030 67 101 5.2 12.2 0.00 0.00 0.00 69 1011.8
20260507114531 67 64 5.2 11.3 0.00 0.00 0.00 70 1011.8
20260507113030 66 138 7.0 12.2 0.00 0.00 0.00 71 1011.7
20260507111530 66 127 7.8 13.9 0.00 0.00 0.00 72 1011.9
20260507110030 66 105 6.1 13.9 0.00 0.00 0.00 72 1012.0
20260507104527 67 64 8.7 14.8 0.00 0.00 0.00 70 1012.1
20260507103032 66 93 10.4 14.8 0.00 0.00 0.00 72 1012.1
20260507101528 66 81 9.6 15.6 0.00 0.00 0.00 72 1012.1
20260507100036 66 117 8.7 16.5 0.00 0.00 0.00 72 1012.0
20260507094528 66 87 9.6 15.6 0.00 0.00 0.00 71 1012.1
20260507093028 66 100 8.7 15.6 0.00 0.00 0.00 71 1012.2
20260507091535 65 76 8.7 16.5 0.00 0.00 0.00 73 1012.1
20260507090028 65 58 8.7 12.2 0.00 0.00 0.00 73 1012.1
20260507084530 65 92 8.7 13.0 0.00 0.00 0.00 75 1012.1
20260507083028 64 61 7.0 12.2 0.00 0.00 0.00 76 1012.2
20260507081530 64 78 7.8 13.0 0.00 0.00 0.00 74 1012.2
20260507080028 64 78 5.2 11.3 0.00 0.00 0.00 74 1012.2
20260507074528 63 43 4.3 8.7 0.00 0.00 0.00 76 1012.2
20260507073031 63 98 3.5 7.8 0.00 0.00 0.00 76 1012.2
20260507071533 62 35 2.6 7.0 0.00 0.00 0.00 80 1012.0
20260507070033 60 35 0.9 5.2 0.00 0.00 0.00 84 1011.8
20260507064550 59 94 0.9 3.5 0.00 0.00 0.00 85 1011.7
20260507063034 59 86 1.7 2.6 0.00 0.00 0.00 85 1011.6
20260507061530 57 113 0.9 1.7 0.00 0.00 0.00 85 1011.7
20260507060030 57 113 0.9 2.6 0.00 0.00 0.00 85 1011.6
20260507054527 56 113 0.9 2.6 0.00 0.00 0.00 84 1011.6
20260507053030 56 0 0.0 2.6 0.00 0.00 0.00 84 1011.6
20260507051528 56 0 0.0 0.9 0.00 0.00 0.00 83 1011.6
20260507050039 57 113 0.9 2.6 0.00 0.00 0.00 83 1011.5
20260507044529 57 113 0.9 1.7 0.00 0.00 0.00 83 1011.4
20260507043030 57 113 0.9 2.6 0.00 0.00 0.00 83 1011.4
20260507041529 57 113 1.7 2.6 0.00 0.00 0.00 82 1011.3
20260507040030 57 114 0.9 2.6 0.00 0.00 0.00 82 1011.3
20260507034530 58 0 0.0 1.7 0.00 0.00 0.00 82 1011.3
20260507033028 59 63 0.9 2.6 0.00 0.00 0.00 82 1011.3
20260507031533 59 63 1.7 3.5 0.00 0.00 0.00 82 1011.3
20260507030035 59 66 1.7 4.3 0.00 0.00 0.00 82 1011.2
20260507024530 59 70 2.6 3.5 0.00 0.00 0.00 82 1011.4
20260507023030 59 65 2.6 5.2 0.00 0.00 0.00 82 1011.4
20260507021527 60 87 2.6 5.2 0.00 0.00 0.00 82 1011.4
20260507020029 60 87 2.6 5.2 0.00 0.00 0.00 82 1011.6
20260507014529 60 95 3.5 5.2 0.00 0.00 0.00 82 1011.7
20260507013028 60 110 2.6 5.2 0.00 0.00 0.00 82 1012.0
20260507011531 60 101 2.6 5.2 0.00 0.00 0.00 82 1011.8
20260507010043 60 103 2.6 5.2 0.00 0.00 0.00 83 1011.7
20260507004533 60 100 2.6 5.2 0.00 0.00 0.00 83 1011.8
20260507003029 60 82 2.6 6.1 0.00 0.00 0.00 83 1011.8
20260507001531 60 93 2.6 5.2 0.00 0.00 0.00 84 1011.9
20260507000028 60 71 2.6 4.3 0.00 0.00 0.00 84 1012.1
20260506234531 61 95 2.6 6.1 0.00 0.00 0.00 84 1012.2
20260506233030 61 73 2.6 5.2 0.00 0.00 0.00 84 1012.3
20260506231531 61 82 2.6 4.3 0.00 0.00 0.00 84 1012.4
20260506230039 61 74 2.6 6.1 0.00 0.00 0.00 84 1012.3